This demonstration page uses our WeatherBlox Daily Observations layout. Learn more.

Left ArrowRight Arrow

39.51506, -84.39828

Hourly Observations for October 30, 2020

Temp ( °F °C ) Dew Point ( °F °C ) Humidity (%) Winds ( mph kmh ) Pressure ( in mb ) Visibility ( mi km ) Precip ( " mm )
12:15 am 00:15 Cloudy 46 7.7 44 6.5 92 92 NNE 7 11 29.92 1013 10 16.0934 0 0
12:35 am 00:35 Cloudy 46 7.5 44 6.4 93 93 NNE 10 17 29.94 1014 10 16.0934 0 0
12:55 am 00:55 Cloudy 45 7.3 44 6.4 94 94 NNE 8 13 29.96 1014 10 16.0934 0 0
1:15 am 01:15 Cloudy 45 7.3 43 6.2 93 93 NNE 8 13 29.96 1014 10 16.0934 0 0
1:35 am 01:35 Cloudy 45 7.3 43 6.1 92 92 NNE 10 17 29.97 1015 10 16.0934 0 0
1:55 am 01:55 Cloudy 45 7.3 43 6 92 92 NNE 8 13 29.98 1015 10 16.0934 0 0
2:15 am 02:15 Cloudy 45 7.3 42 5.7 90 90 NNE 8 13 29.98 1015 10 16.0934 0 0
2:35 am 02:35 Cloudy 45 7.2 42 5.8 91 91 NNE 8 13 29.99 1015 10 16.0934 0 0
2:55 am 02:55 Cloudy 45 7 42 5.5 90 90 N 9 15 30 1016 10 16.0934 0 0
3:15 am 03:15 Cloudy 44 6.9 42 5.3 90 90 NNE 9 15 30.01 1016 10 16.0934 0 0
3:35 am 03:35 Cloudy 44 6.9 42 5.3 90 90 NNE 13 20 30.02 1016 10 16.0934 0 0
3:55 am 03:55 Cloudy 44 6.8 41 5 88 88 N 10 17 30.02 1016 10 16.0934 0 0
4:15 am 04:15 Cloudy 44 6.7 41 4.8 88 88 NNE 9 15 30.03 1017 10 16.0934 0 0
4:35 am 04:35 Cloudy 44 6.7 40 4.6 87 87 NNE 10 17 30.03 1017 10 16.0934 0 0
4:55 am 04:55 Cloudy 44 6.7 40 4.6 87 87 N 8 13 30.04 1017 10 16.0934 0 0
5:15 am 05:15 Cloudy 44 6.6 40 4.4 86 86 N 9 15 30.05 1018 10 16.0934 0 0
5:35 am 05:35 Cloudy 44 6.5 40 4.3 86 86 NNE 8 13 30.06 1018 10 16.0934 0 0
5:55 am 05:55 Cloudy 44 6.4 40 4.3 87 87 NNE 7 11 30.07 1018 10 16.0934 0 0
6:15 am 06:15 Cloudy 44 6.4 40 4.4 87 87 NNE 7 11 30.08 1019 10 16.0934 0 0
6:35 am 06:35 Cloudy 44 6.4 40 4.2 86 86 N 8 13 30.1 1019 10 16.0934 0 0
6:55 am 06:55 Cloudy 44 6.4 39 4.1 85 85 N 7 11 30.1 1019 10 16.0934 0 0
7:15 am 07:15 Cloudy 43 6.3 39 4.1 86 86 N 6 9 30.11 1020 10 16.0934 0 0
7:35 am 07:35 Cloudy 43 6.2 39 3.8 85 85 N 6 9 30.13 1020 10 16.0934 0 0
7:55 am 07:55 Cloudy 43 6.2 38 3.6 84 84 N 6 9 30.13 1020 10 16.0934 0 0
8:15 am 08:15 Cloudy 43 6 38 3.1 82 82 N 7 11 30.15 1021 10 16.0934 0 0
8:35 am 08:35 Mostly Cloudy 42 5.6 37 3 84 84 NNE 3 6 30.16 1021 10 16.0934 0 0
8:55 am 08:55 Mostly Cloudy 43 5.9 38 3.3 84 84 Calm 30.18 1022 10 16.0934 0 0
9:15 am 09:15 Partly Cloudy 42 5.6 38 3.3 85 85 N 5 7 30.19 1022 10 16.0934 0 0
9:35 am 09:35 Mostly Cloudy 43 6 38 3.6 85 85 N 5 7 30.2 1023 10 16.0934 0 0
9:55 am 09:55 Mostly Cloudy 44 6.7 39 3.8 82 82 NNW 10 17 30.22 1023 10 16.0934 0 0
10:15 am 10:15 Partly Cloudy 44 6.4 38 3.3 81 81 N 14 22 30.23 1024 10 16.0934 0 0
10:35 am 10:35 Partly Cloudy 44 6.9 38 3.5 79 79 N 10 17 30.23 1024 10 16.0934 0 0
10:55 am 10:55 Mostly Cloudy 45 7.1 37 2.9 75 75 N 10 17 30.24 1024 10 16.0934 0 0
11:15 am 11:15 Mostly Cloudy 44 6.7 36 2 72 72 N 10 17 30.25 1024 10 16.0934 0 0
11:35 am 11:35 Mostly Cloudy 46 7.6 36 2.1 68 68 N 16 26 30.26 1025 10 16.0934 0 0
11:55 am 11:55 Partly Cloudy 47 8.4 36 2.2 65 65 N 12 19 30.26 1025 10 16.0934 0 0
12:15 pm 12:15 Mostly Cloudy 47 8.1 37 2.6 69 69 NNE 14 22 30.26 1025 10 16.0934 0 0
12:35 pm 12:35 Cloudy 46 7.8 34 1.2 63 63 NNE 12 19 30.27 1025 10 16.0934 0 0
12:55 pm 12:55 Mostly Cloudy 47 8.3 36 2.3 66 66 NE 10 17 30.27 1025 10 16.0934 0 0
1:15 pm 13:15 Partly Cloudy 47 8.2 34 1.3 62 62 NW 10 17 30.27 1025 10 16.0934 0 0
1:35 pm 13:35 Partly Cloudy 48 8.9 33 0.7 57 57 NNW 14 22 30.26 1025 10 16.0934 0 0
1:55 pm 13:55 Mostly Cloudy 47 8.2 33 0.5 59 59 N 7 11 30.26 1025 10 16.0934 0 0
2:15 pm 14:15 Cloudy 47 8.5 33 0.3 57 57 NNE 10 17 30.26 1025 10 16.0934 0 0
2:35 pm 14:35 Mostly Cloudy 47 8.4 33 0.3 57 57 NNE 12 19 30.27 1025 10 16.0934 0 0
2:55 pm 14:55 Mostly Cloudy 50 9.9 33 0.5 52 52 NNW 9 15 30.26 1025 10 16.0934 0 0
3:15 pm 15:15 Partly Cloudy 48 9 32 -0.2 53 53 NNE 3 6 30.26 1025 10 16.0934 0 0
3:35 pm 15:35 Mostly Cloudy 49 9.6 31 -0.7 49 49 NNE 9 15 30.26 1025 10 16.0934 0 0
3:55 pm 15:55 Partly Cloudy 47 8.4 31 -0.5 54 54 NNE 7 11 30.26 1025 10 16.0934 0 0
4:15 pm 16:15 Sunny 49 9.5 32 -0.2 51 51 N 10 17 30.26 1025 10 16.0934 0 0
4:35 pm 16:35 Cloudy 50 9.8 31 -0.4 49 49 N 3 6 30.27 1025 10 16.0934 0 0
4:55 pm 16:55 Cloudy 48 8.8 31 -0.5 52 52 NNE 5 7 30.28 1025 10 16.0934 0 0
5:15 pm 17:15 Cloudy 48 8.8 32 -0.2 54 54 N 8 13 30.29 1026 10 16.0934 0 0
5:35 pm 17:35 Cloudy 48 8.8 31 -0.5 52 52 N 7 11 30.29 1026 10 16.0934 0 0
5:55 pm 17:55 Cloudy 47 8.5 31 -0.4 54 54 N 7 11 30.3 1026 10 16.0934 0 0
6:15 pm 18:15 Cloudy 47 8.4 32 0 56 56 Calm 30.3 1026 10 16.0934 0 0
6:35 pm 18:35 Cloudy 47 8.2 32 -0.1 56 56 NNE 3 6 30.3 1026 10 16.0934 0 0
6:55 pm 18:55 Cloudy 46 7.8 33 0.4 60 60 Calm 30.3 1026 10 16.0934 0 0
7:15 pm 19:15 Cloudy 46 7.7 33 0.3 60 60 Calm 30.31 1027 10 16.0934 0 0
7:35 pm 19:35 Cloudy 46 7.5 33 0.8 63 63 Calm 30.33 1027 10 16.0934 0 0
7:55 pm 19:55 Cloudy 45 7.1 34 1.2 66 66 Calm 30.34 1027 10 16.0934 0 0
8:15 pm 20:15 Cloudy 44 6.8 35 1.6 70 70 Calm 30.34 1027 10 16.0934 0 0
8:35 pm 20:35 Cloudy 44 6.7 35 1.4 69 69 Calm 30.35 1028 10 16.0934 0 0
8:55 pm 20:55 Mostly Cloudy 44 6.7 34 0.9 67 67 Calm 30.35 1028 10 16.0934 0 0
9:15 pm 21:15 Mostly Cloudy 43 6 36 2.2 77 77 Calm 30.35 1028 10 16.0934 0 0
9:35 pm 21:35 Cloudy 41 4.8 37 2.9 88 88 Calm 30.36 1028 10 16.0934 0 0
9:55 pm 21:55 Mostly Cloudy 39 4.1 37 2.9 92 92 Calm 30.36 1028 10 16.0934 0 0
10:15 pm 22:15 Clear 38 3.5 36 2.3 92 92 Calm 30.38 1029 10 16.0934 0 0
10:35 pm 22:35 Clear 38 3.2 36 2.2 93 93 Calm 30.38 1029 10 16.0934 0 0
10:55 pm 22:55 Clear 36 2.4 35 1.9 97 97 Calm 30.39 1029 10 16.0934 0 0
11:15 pm 23:15 Partly Cloudy 35 1.6 34 1.2 97 97 Calm 30.4 1029 10 16.0934 0 0
11:35 pm 23:35 Partly Cloudy 35 1.8 35 1.4 97 97 Calm 30.4 1029 10 16.0934 0 0
11:55 pm 23:55 Clear 35 1.6 34 1.2 97 97 Calm 30.4 1029 10 16.0934 0 0

Powered by AerisWeather